This is the latest recevied weather packets stored in our database for station/object SR5NLK-1. If no packets are shown the sender has not sent any weather packets the latest 10 day(s).
| Time | Temp. | Humidity | Pressure | Rain* | Wind** | Luminosity | Snow |
|---|---|---|---|---|---|---|---|
| 1777666808 | 11.67° C | 52% | 1075.2 hPa | 0 mm | - | - | - |
| 1777665308 | 12.78° C | 49% | 1068.9 hPa | 0 mm | - | - | - |
| 1777664108 | 13.89° C | 48% | 1062.6 hPa | 0 mm | - | - | - |
| 1777662908 | 13.89° C | 45% | 1081.5 hPa | 0 mm | - | - | - |
| 1777662308 | 14.44° C | 44% | 1090.9 hPa | 0 mm | - | - | - |
| 1777660567 | 16.11° C | 41% | 997.9 hPa | 0 mm | - | - | - |
| 1777660508 | 16.11° C | 41% | 1069 hPa | 0 mm | - | - | - |
| 1777659308 | 17.22° C | 38% | 1075.2 hPa | 0 mm | - | - | - |
| 1777659008 | 17.78° C | 38% | 1046.9 hPa | 0 mm | - | - | - |
| 1777656909 | 18.89° C | 35% | 1059.5 hPa | 0 mm | - | - | - |
| 1777652716 | 20.56° C | 33% | 1094.1 hPa | 0 mm | - | - | - |
| 1777652647 | 20.56° C | 33% | 1094.1 hPa | 0 mm | - | - | - |
| 1777650908 | 20.56° C | 31% | 1046.9 hPa | 0 mm | - | - | - |
| 1777650668 | 20.56° C | 31% | 1017.7 hPa | 0 mm | - | - | - |
| 1777650008 | 21.11° C | 31% | 1068.9 hPa | 0 mm | - | - | - |
| 1777649708 | 21.11° C | 32% | 1078.4 hPa | 0 mm | - | - | - |
| 1777649408 | 21.11° C | 32% | 1056.4 hPa | 0 mm | - | - | - |
| 1777649108 | 21.11° C | 32% | 1075.2 hPa | 0 mm | - | - | - |
| 1777648808 | 21.11° C | 32% | 1062.7 hPa | 0 mm | - | - | - |
| 1777648688 | 21.11° C | 32% | 1050.1 hPa | 0 mm | - | - | - |
| 1777648508 | 21.11° C | 32% | 1062.7 hPa | 0 mm | - | - | - |
| 1777648208 | 21.11° C | 33% | 1005.1 hPa | 0 mm | - | - | - |
| 1777647908 | 21.11° C | 33% | 1081.5 hPa | 0 mm | - | - | - |
| 1777647308 | 21.11° C | 33% | 1072.1 hPa | 0 mm | - | - | - |
| 1777646708 | 21.67° C | 33% | 1075.3 hPa | 0 mm | - | - | - |
* Rain latest hour (hover to see other rain measurements)
** Current wind speed in m/s (hover to see current wind gust speed)